Time,TemperatureF,DewpointF,PressureIn,WindDirection,WindDirectionDegrees,WindSpeedMPH,WindSpeedGustMPH,Humidity,HourlyPrecipIn,Conditions,Clouds,dailyrainin,SoftwareType,DateUTC
2013-03-28 00:03:00,27.2,23.2,29.74,ESE,113,0.4,0.4,85,0.00,,,0.00,WUHU216HW,2013-03-27 23:03:00,
2013-03-28 00:08:00,27.2,23.0,29.73,ESE,113,0.0,0.4,84,0.00,,,0.00,WUHU216HW,2013-03-27 23:08:00,
2013-03-28 00:13:00,27.2,23.2,29.73,ESE,113,0.0,0.4,85,0.00,,,0.00,WUHU216HW,2013-03-27 23:13:00,
2013-03-28 00:18:00,27.2,23.2,29.73,ESE,113,0.0,0.0,85,0.00,,,0.00,WUHU216HW,2013-03-27 23:18:00,
2013-03-28 00:23:00,27.4,23.4,29.73,ESE,113,0.0,0.0,85,0.00,,,0.00,WUHU216HW,2013-03-27 23:23:00,
2013-03-28 00:28:00,27.5,23.6,29.73,ESE,113,0.2,0.4,85,0.00,,,0.00,WUHU216HW,2013-03-27 23:28:00,
2013-03-28 00:33:00,27.7,23.5,29.73,ESE,113,0.0,0.7,84,0.00,,,0.00,WUHU216HW,2013-03-27 23:33:00,
2013-03-28 00:38:00,27.7,23.5,29.73,ESE,113,0.4,0.7,84,0.00,,,0.00,WUHU216HW,2013-03-27 23:38:00,
2013-03-28 00:43:00,27.5,23.3,29.73,ESE,113,0.0,0.4,84,0.00,,,0.00,WUHU216HW,2013-03-27 23:43:00,
2013-03-28 00:48:00,27.5,23.3,29.73,ESE,113,0.7,0.7,84,0.00,,,0.00,WUHU216HW,2013-03-27 23:48:00,
2013-03-28 00:53:00,27.5,23.3,29.73,ESE,113,0.4,0.7,84,0.00,,,0.00,WUHU216HW,2013-03-27 23:53:00,
2013-03-28 00:58:00,27.5,23.6,29.73,ESE,113,0.4,0.9,85,0.00,,,0.00,WUHU216HW,2013-03-27 23:58:00,
2013-03-28 01:03:00,27.5,23.6,29.72,ESE,113,0.4,0.9,85,0.00,,,0.00,WUHU216HW,2013-03-28 00:03:00,
2013-03-28 01:08:00,27.5,23.6,29.72,ESE,113,0.4,0.7,85,0.00,,,0.00,WUHU216HW,2013-03-28 00:08:00,
2013-03-28 01:13:00,27.5,23.6,29.72,ESE,113,0.2,0.9,85,0.00,,,0.00,WUHU216HW,2013-03-28 00:13:00,
2013-03-28 01:18:00,27.5,23.6,29.72,East,90,0.4,0.9,85,0.00,,,0.00,WUHU216HW,2013-03-28 00:18:00,
2013-03-28 01:23:00,27.7,23.8,29.72,East,90,0.4,0.9,85,0.00,,,0.00,WUHU216HW,2013-03-28 00:23:00,
2013-03-28 01:28:00,27.7,23.8,29.72,ENE,68,0.0,0.9,85,0.00,,,0.00,WUHU216HW,2013-03-28 00:28:00,
2013-03-28 01:33:00,27.7,23.8,29.72,ENE,68,1.6,1.6,85,0.00,,,0.00,WUHU216HW,2013-03-28 00:33:00,
2013-03-28 01:38:00,27.7,23.8,29.72,East,90,0.0,1.6,85,0.00,,,0.00,WUHU216HW,2013-03-28 00:38:00,
2013-03-28 01:43:00,27.9,23.9,29.72,East,90,0.4,1.6,85,0.00,,,0.00,WUHU216HW,2013-03-28 00:43:00,
2013-03-28 01:49:00,27.9,23.9,29.71,NE,45,1.6,2.0,85,0.00,,,0.00,WUHU216HW,2013-03-28 00:49:00,
2013-03-28 01:54:00,27.9,23.9,29.71,ENE,68,0.4,2.0,85,0.00,,,0.00,WUHU216HW,2013-03-28 00:54:00,
2013-03-28 01:59:00,27.9,23.9,29.71,East,90,1.3,1.6,85,0.00,,,0.00,WUHU216HW,2013-03-28 00:59:00,
2013-03-28 02:04:00,27.9,23.9,29.71,East,90,0.4,1.3,85,0.00,,,0.00,WUHU216HW,2013-03-28 01:04:00,
2013-03-28 02:09:00,27.9,23.9,29.71,ENE,68,0.4,1.3,85,0.00,,,0.00,WUHU216HW,2013-03-28 01:09:00,
2013-03-28 02:14:00,28.1,24.1,29.71,ESE,113,0.4,0.7,85,0.00,,,0.00,WUHU216HW,2013-03-28 01:14:00,
2013-03-28 02:19:00,28.1,24.1,29.71,ENE,68,1.3,2.2,85,0.00,,,0.00,WUHU216HW,2013-03-28 01:19:00,
2013-03-28 02:24:00,28.1,24.1,29.71,ESE,113,1.6,2.2,85,0.00,,,0.00,WUHU216HW,2013-03-28 01:24:00,
2013-03-28 02:29:00,28.1,24.1,29.71,East,90,1.1,2.2,85,0.00,,,0.00,WUHU216HW,2013-03-28 01:29:00,
2013-03-28 02:34:00,28.1,24.1,29.71,ESE,113,0.9,4.0,85,0.00,,,0.00,WUHU216HW,2013-03-28 01:34:00,
2013-03-28 02:39:00,28.1,24.1,29.71,East,90,0.9,4.0,85,0.00,,,0.00,WUHU216HW,2013-03-28 01:39:00,
2013-03-28 02:44:00,28.1,24.1,29.71,ENE,68,0.2,3.6,85,0.00,,,0.00,WUHU216HW,2013-03-28 01:44:00,
2013-03-28 02:49:00,28.1,24.1,29.70,NE,45,0.7,3.4,85,0.00,,,0.00,WUHU216HW,2013-03-28 01:49:00,
2013-03-28 02:54:00,28.3,24.6,29.70,NE,45,1.8,3.4,86,0.00,,,0.00,WUHU216HW,2013-03-28 01:54:00,
2013-03-28 02:59:00,28.3,24.6,29.70,NNE,23,1.8,2.2,86,0.00,,,0.00,WUHU216HW,2013-03-28 01:59:00,
2013-03-28 03:04:00,28.1,24.1,29.70,East,90,1.6,2.2,85,0.00,,,0.00,WUHU216HW,2013-03-28 02:04:00,
2013-03-28 03:09:00,28.1,23.9,29.70,ESE,113,0.4,1.8,84,0.00,,,0.00,WUHU216HW,2013-03-28 02:09:00,
2013-03-28 03:14:00,28.1,24.1,29.70,NE,45,0.4,1.3,85,0.00,,,0.00,WUHU216HW,2013-03-28 02:14:00,
2013-03-28 03:19:00,28.1,24.1,29.70,ENE,68,0.4,1.3,85,0.00,,,0.00,WUHU216HW,2013-03-28 02:19:00,
2013-03-28 03:24:00,28.1,24.1,29.70,ESE,113,1.3,1.6,85,0.00,,,0.00,WUHU216HW,2013-03-28 02:24:00,
2013-03-28 03:29:00,28.1,24.1,29.70,East,90,1.1,1.8,85,0.00,,,0.00,WUHU216HW,2013-03-28 02:29:00,
2013-03-28 03:34:00,28.1,24.1,29.69,ESE,113,0.0,1.8,85,0.00,,,0.00,WUHU216HW,2013-03-28 02:34:00,
2013-03-28 03:39:00,28.1,24.1,29.70,East,90,0.4,1.8,85,0.00,,,0.00,WUHU216HW,2013-03-28 02:39:00,
2013-03-28 03:44:00,28.1,24.1,29.70,ESE,113,1.3,1.6,85,0.00,,,0.00,WUHU216HW,2013-03-28 02:44:00,
2013-03-28 03:49:00,27.9,23.9,29.68,NE,45,1.6,1.8,85,0.00,,,0.00,WUHU216HW,2013-03-28 02:49:00,
2013-03-28 03:54:00,28.1,24.1,29.67,ESE,113,1.1,1.8,85,0.00,,,0.00,WUHU216HW,2013-03-28 02:54:00,
2013-03-28 03:59:00,28.1,24.1,29.70,ENE,68,0.4,1.6,85,0.00,,,0.00,WUHU216HW,2013-03-28 02:59:00,
2013-03-28 04:04:00,28.1,24.1,29.69,ENE,68,0.9,1.8,85,0.00,,,0.00,WUHU216HW,2013-03-28 03:04:00,
2013-03-28 04:09:00,28.1,24.1,29.70,NE,45,1.8,1.8,85,0.00,,,0.00,WUHU216HW,2013-03-28 03:09:00,
2013-03-28 04:14:00,28.1,24.1,29.71,ENE,68,1.1,1.8,85,0.00,,,0.00,WUHU216HW,2013-03-28 03:14:00,
2013-03-28 04:19:00,28.1,24.1,29.71,NE,45,1.6,2.5,85,0.00,,,0.00,WUHU216HW,2013-03-28 03:19:00,
2013-03-28 04:24:00,28.1,24.1,29.70,NE,45,1.1,2.5,85,0.00,,,0.00,WUHU216HW,2013-03-28 03:24:00,
2013-03-28 04:30:00,28.1,24.1,29.71,NE,45,0.4,2.2,85,0.00,,,0.00,WUHU216HW,2013-03-28 03:30:00,
2013-03-28 04:35:00,28.1,24.1,29.71,NE,45,0.4,2.7,85,0.00,,,0.00,WUHU216HW,2013-03-28 03:35:00,
2013-03-28 04:40:00,28.1,24.1,29.71,NE,45,0.4,2.7,85,0.00,,,0.00,WUHU216HW,2013-03-28 03:40:00,
2013-03-28 04:45:00,28.1,24.1,29.71,ESE,113,0.7,1.3,85,0.00,,,0.00,WUHU216HW,2013-03-28 03:45:00,
2013-03-28 04:50:00,28.1,24.1,29.71,ENE,68,0.2,1.8,85,0.00,,,0.00,WUHU216HW,2013-03-28 03:50:00,
2013-03-28 04:55:00,28.1,24.4,29.71,NE,45,0.7,1.8,86,0.00,,,0.00,WUHU216HW,2013-03-28 03:55:00,
2013-03-28 05:00:00,28.3,24.8,29.71,ENE,68,0.9,2.2,87,0.00,,,0.00,WUHU216HW,2013-03-28 04:00:00,
2013-03-28 05:05:00,28.3,24.6,29.71,ENE,68,0.4,2.2,86,0.00,,,0.00,WUHU216HW,2013-03-28 04:05:00,
2013-03-28 05:10:00,28.3,24.6,29.71,ENE,68,0.4,2.0,86,0.00,,,0.00,WUHU216HW,2013-03-28 04:10:00,
2013-03-28 05:15:00,28.3,24.6,29.71,NE,45,1.1,2.5,86,0.00,,,0.00,WUHU216HW,2013-03-28 04:15:00,
2013-03-28 05:20:00,28.1,24.1,29.71,East,90,0.7,2.5,85,0.00,,,0.00,WUHU216HW,2013-03-28 04:20:00,
2013-03-28 05:25:00,28.1,24.1,29.70,ENE,68,1.8,1.8,85,0.00,,,0.00,WUHU216HW,2013-03-28 04:25:00,
2013-03-28 05:30:00,28.1,24.4,29.70,East,90,1.8,1.8,86,0.00,,,0.00,WUHU216HW,2013-03-28 04:30:00,
2013-03-28 05:35:00,28.1,24.1,29.70,East,90,1.6,2.5,85,0.00,,,0.00,WUHU216HW,2013-03-28 04:35:00,
2013-03-28 05:40:00,28.1,24.4,29.70,ENE,68,0.9,2.5,86,0.00,,,0.00,WUHU216HW,2013-03-28 04:40:00,
2013-03-28 05:45:00,28.1,24.4,29.70,NE,45,0.4,2.0,86,0.00,,,0.00,WUHU216HW,2013-03-28 04:45:00,
2013-03-28 05:50:00,28.1,24.4,29.70,ESE,113,3.6,3.6,86,0.00,,,0.00,WUHU216HW,2013-03-28 04:50:00,
2013-03-28 05:55:00,28.1,24.1,29.70,NE,45,2.5,3.6,85,0.00,,,0.00,WUHU216HW,2013-03-28 04:55:00,
2013-03-28 06:00:00,28.1,24.1,29.70,ESE,113,0.7,3.6,85,0.00,,,0.00,WUHU216HW,2013-03-28 05:00:00,
2013-03-28 06:05:00,28.3,24.6,29.69,East,90,1.1,2.9,86,0.00,,,0.00,WUHU216HW,2013-03-28 05:05:00,
2013-03-28 06:10:00,28.4,24.8,29.70,ENE,68,1.6,2.9,86,0.00,,,0.00,WUHU216HW,2013-03-28 05:10:00,
2013-03-28 06:15:00,28.4,25.0,29.70,NE,45,1.6,2.9,87,0.00,,,0.00,WUHU216HW,2013-03-28 05:15:00,
2013-03-28 06:20:00,28.4,24.8,29.69,ESE,113,2.2,2.5,86,0.00,,,0.00,WUHU216HW,2013-03-28 05:20:00,
2013-03-28 06:26:00,28.4,24.8,29.69,ENE,68,1.6,2.9,86,0.00,,,0.00,WUHU216HW,2013-03-28 05:26:00,
2013-03-28 06:31:00,28.4,24.8,29.69,ENE,68,1.6,3.1,86,0.00,,,0.00,WUHU216HW,2013-03-28 05:31:00,
2013-03-28 06:36:00,28.4,24.8,29.70,NE,45,1.6,3.1,86,0.00,,,0.00,WUHU216HW,2013-03-28 05:36:00,
2013-03-28 06:41:00,28.4,25.0,29.68,ENE,68,2.2,3.6,87,0.00,,,0.00,WUHU216HW,2013-03-28 05:41:00,
2013-03-28 06:46:00,28.3,24.6,29.63,NE,45,1.6,3.6,86,0.00,,,0.00,WUHU216HW,2013-03-28 05:46:00,
2013-03-28 06:52:00,28.3,24.6,29.64,ENE,68,1.8,3.4,86,0.00,,,0.00,WUHU216HW,2013-03-28 05:52:00,
2013-03-28 06:57:00,28.3,24.6,29.67,ESE,113,2.9,3.4,86,0.00,,,0.00,WUHU216HW,2013-03-28 05:57:00,
2013-03-28 07:02:00,28.4,24.8,29.70,ENE,68,2.5,3.6,86,0.00,,,0.00,WUHU216HW,2013-03-28 06:02:00,
2013-03-28 07:07:00,28.4,25.0,29.68,NNE,23,1.6,3.6,87,0.00,,,0.00,WUHU216HW,2013-03-28 06:07:00,
2013-03-28 07:12:00,28.3,24.8,29.63,NE,45,0.9,2.7,87,0.00,,,0.00,WUHU216HW,2013-03-28 06:12:00,
2013-03-28 07:17:00,28.3,24.8,29.62,NE,45,1.8,2.5,87,0.00,,,0.00,WUHU216HW,2013-03-28 06:17:00,
2013-03-28 07:22:00,28.4,25.0,29.65,East,90,0.9,2.7,87,0.00,,,0.00,WUHU216HW,2013-03-28 06:22:00,
2013-03-28 07:27:00,28.4,25.0,29.65,NE,45,1.1,2.7,87,0.00,,,0.00,WUHU216HW,2013-03-28 06:27:00,
2013-03-28 07:32:00,28.4,24.8,29.67,North,0,1.8,2.9,86,0.00,,,0.00,WUHU216HW,2013-03-28 06:32:00,
2013-03-28 07:37:00,28.4,25.0,29.67,NE,45,1.3,2.9,87,0.00,,,0.00,WUHU216HW,2013-03-28 06:37:00,
2013-03-28 07:42:00,28.4,25.0,29.66,NNE,23,1.3,2.0,87,0.00,,,0.00,WUHU216HW,2013-03-28 06:42:00,
2013-03-28 07:47:00,28.4,25.0,29.66,NE,45,0.7,2.0,87,0.00,,,0.00,WUHU216HW,2013-03-28 06:47:00,
2013-03-28 07:52:00,28.6,25.2,29.68,NNE,23,0.4,2.2,87,0.00,,,0.00,WUHU216HW,2013-03-28 06:52:00,
2013-03-28 07:57:00,28.4,25.0,29.65,NE,45,1.1,2.5,87,0.00,,,0.00,WUHU216HW,2013-03-28 06:57:00,
2013-03-28 08:02:00,28.4,25.4,29.64,ENE,68,0.7,2.5,88,0.00,,,0.00,WUHU216HW,2013-03-28 07:02:00,
2013-03-28 08:07:00,28.6,25.6,29.54,NE,45,0.4,2.5,88,0.00,,,0.00,WUHU216HW,2013-03-28 07:07:00,
2013-03-28 08:12:00,28.8,25.8,29.53,NE,45,2.0,2.5,88,0.00,,,0.00,WUHU216HW,2013-03-28 07:12:00,
2013-03-28 08:17:00,28.8,25.8,29.48,NE,45,0.9,2.0,88,0.00,,,0.00,WUHU216HW,2013-03-28 07:17:00,
2013-03-28 08:22:00,28.8,25.8,29.43,NNE,23,1.8,2.9,88,0.00,,,0.00,WUHU216HW,2013-03-28 07:22:00,
2013-03-28 08:27:00,29.0,25.6,29.47,ENE,68,1.1,2.9,87,0.00,,,0.00,WUHU216HW,2013-03-28 07:27:00,
2013-03-28 08:32:00,29.2,25.7,29.52,NE,45,1.1,2.2,87,0.00,,,0.00,WUHU216HW,2013-03-28 07:32:00,
2013-03-28 08:37:00,29.2,25.7,29.54,NNE,23,1.8,3.8,87,0.00,,,0.00,WUHU216HW,2013-03-28 07:37:00,
2013-03-28 08:42:00,29.2,25.8,29.53,NE,45,0.9,3.8,87,0.00,,,0.00,WUHU216HW,2013-03-28 07:42:00,
2013-03-28 08:47:00,29.2,25.7,29.49,NE,45,1.1,2.5,87,0.00,,,0.00,WUHU216HW,2013-03-28 07:47:00,
2013-03-28 08:52:00,29.2,25.7,29.52,NE,45,0.7,2.2,87,0.00,,,0.00,WUHU216HW,2013-03-28 07:52:00,
2013-03-28 08:57:00,29.3,25.9,29.48,ENE,68,0.4,2.0,87,0.00,,,0.00,WUHU216HW,2013-03-28 07:57:00,
2013-03-28 09:02:00,29.5,26.1,29.45,NNE,23,0.9,2.2,87,0.00,,,0.00,WUHU216HW,2013-03-28 08:02:00,
2013-03-28 09:07:00,29.5,26.1,29.42,North,0,1.6,2.5,87,0.00,,,0.00,WUHU216HW,2013-03-28 08:07:00,
2013-03-28 09:12:00,29.7,26.3,29.44,NNE,23,0.9,2.5,87,0.00,,,0.00,WUHU216HW,2013-03-28 08:12:00,
2013-03-28 09:18:00,29.9,26.5,29.47,NE,45,0.7,2.0,87,0.00,,,0.00,WUHU216HW,2013-03-28 08:18:00,
2013-03-28 09:23:00,29.9,26.2,29.42,NE,45,0.4,2.2,86,0.00,,,0.00,WUHU216HW,2013-03-28 08:23:00,
2013-03-28 09:28:00,29.9,26.2,29.43,NNE,23,0.4,2.2,86,0.00,,,0.00,WUHU216HW,2013-03-28 08:28:00,
2013-03-28 09:33:00,30.1,26.4,29.42,NNE,23,0.7,2.5,86,0.00,,,0.00,WUHU216HW,2013-03-28 08:33:00,
2013-03-28 09:38:00,30.2,26.5,29.46,East,90,1.1,2.5,86,0.00,,,0.00,WUHU216HW,2013-03-28 08:38:00,
2013-03-28 09:43:00,30.4,26.7,29.43,SSW,203,0.7,2.5,86,0.00,,,0.00,WUHU216HW,2013-03-28 08:43:00,
2013-03-28 09:48:00,31.0,27.3,29.37,SW,225,0.2,2.5,86,0.00,,,0.00,WUHU216HW,2013-03-28 08:48:00,
2013-03-28 09:53:00,31.3,27.4,29.49,ESE,113,0.4,1.8,85,0.00,,,0.00,WUHU216HW,2013-03-28 08:53:00,
2013-03-28 09:58:00,31.7,27.5,29.41,NE,45,0.4,1.8,84,0.00,,,0.00,WUHU216HW,2013-03-28 08:58:00,
2013-03-28 10:03:00,32.0,27.8,29.35,SW,225,2.2,3.8,84,0.00,,,0.00,WUHU216HW,2013-03-28 09:03:00,
2013-03-28 10:08:00,32.8,28.2,29.47,South,180,0.9,3.8,83,0.00,,,0.00,WUHU216HW,2013-03-28 09:08:00,
2013-03-28 10:13:00,32.9,27.7,29.46,WSW,248,1.8,2.5,81,0.01,,,0.02,WUHU216HW,2013-03-28 09:13:00,
2013-03-28 10:19:00,32.9,27.7,29.35,SE,135,1.3,3.4,81,0.01,,,0.02,WUHU216HW,2013-03-28 09:19:00,
2013-03-28 10:24:00,33.1,27.9,29.42,SE,135,1.8,4.7,81,0.01,,,0.02,WUHU216HW,2013-03-28 09:24:00,
2013-03-28 10:29:00,32.9,27.5,29.36,SSE,158,1.6,4.7,80,0.01,,,0.02,WUHU216HW,2013-03-28 09:29:00,
2013-03-28 10:34:00,33.1,27.9,29.35,ESE,113,4.0,4.0,81,0.01,,,0.02,WUHU216HW,2013-03-28 09:34:00,
2013-03-28 10:39:00,33.1,27.6,29.32,SE,135,2.0,4.0,80,0.01,,,0.02,WUHU216HW,2013-03-28 09:39:00,
2013-03-28 10:44:00,33.1,27.6,29.32,SE,135,2.0,2.0,80,0.01,,,0.02,WUHU216HW,2013-03-28 09:44:00,
2013-03-28 10:49:00,33.3,27.8,29.28,ESE,113,4.3,4.3,80,0.01,,,0.02,WUHU216HW,2013-03-28 09:49:00,
2013-03-28 10:54:00,33.3,27.8,29.34,SW,225,0.7,4.3,80,0.01,,,0.02,WUHU216HW,2013-03-28 09:54:00,
2013-03-28 10:59:00,33.5,27.7,29.31,SSW,203,1.8,2.5,79,0.01,,,0.02,WUHU216HW,2013-03-28 09:59:00,
2013-03-28 11:04:00,33.8,28.3,29.32,SE,135,4.5,6.3,80,0.01,,,0.02,WUHU216HW,2013-03-28 10:04:00,
2013-03-28 11:09:00,34.2,28.6,29.26,SSE,158,1.6,6.3,80,0.00,,,0.02,WUHU216HW,2013-03-28 10:09:00,
2013-03-28 11:14:00,34.6,29.0,29.34,East,90,2.0,5.1,80,0.01,,,0.03,WUHU216HW,2013-03-28 10:14:00,
2013-03-28 11:19:00,35.1,29.3,29.31,SSW,203,0.9,6.0,79,0.01,,,0.03,WUHU216HW,2013-03-28 10:19:00,
2013-03-28 11:24:00,35.3,29.3,29.47,East,90,2.7,6.0,79,0.01,,,0.03,WUHU216HW,2013-03-28 10:24:00,
2013-03-28 11:29:00,35.8,29.9,29.49,SW,225,3.4,6.3,79,0.01,,,0.03,WUHU216HW,2013-03-28 10:29:00,
2013-03-28 11:34:00,36.4,30.2,29.51,SW,225,4.0,6.3,78,0.01,,,0.03,WUHU216HW,2013-03-28 10:34:00,
2013-03-28 11:39:00,36.5,30.0,29.60,WNW,293,0.2,6.0,77,0.01,,,0.03,WUHU216HW,2013-03-28 10:39:00,
2013-03-28 11:44:00,36.5,29.0,29.63,SE,135,1.6,4.0,74,0.01,,,0.03,WUHU216HW,2013-03-28 10:44:00,
2013-03-28 11:49:00,36.4,29.5,29.66,WSW,248,3.1,3.6,76,0.01,,,0.03,WUHU216HW,2013-03-28 10:49:00,
2013-03-28 11:54:00,36.9,30.1,29.69,West,270,2.7,6.0,76,0.01,,,0.03,WUHU216HW,2013-03-28 10:54:00,
2013-03-28 11:59:00,37.6,30.8,29.69,NNE,23,2.0,6.0,76,0.01,,,0.03,WUHU216HW,2013-03-28 10:59:00,
2013-03-28 12:04:00,37.8,29.6,29.69,SSE,158,0.0,5.8,72,0.01,,,0.03,WUHU216HW,2013-03-28 11:04:00,
2013-03-28 12:09:00,37.3,28.4,29.70,East,90,1.3,5.8,70,0.00,,,0.03,WUHU216HW,2013-03-28 11:09:00,
2013-03-28 12:14:00,37.3,29.7,29.70,NW,315,0.7,5.4,74,0.00,,,0.03,WUHU216HW,2013-03-28 11:14:00,
2013-03-28 12:19:00,37.8,30.9,29.71,WSW,248,3.4,4.5,76,0.00,,,0.03,WUHU216HW,2013-03-28 11:19:00,
2013-03-28 12:24:00,38.0,29.8,29.70,North,0,1.6,4.5,72,0.00,,,0.03,WUHU216HW,2013-03-28 11:24:00,
2013-03-28 12:29:00,38.0,30.4,29.71,NW,315,0.4,3.4,74,0.00,,,0.03,WUHU216HW,2013-03-28 11:29:00,
2013-03-28 12:34:00,37.8,29.6,29.71,SW,225,2.9,2.9,72,0.00,,,0.03,WUHU216HW,2013-03-28 11:34:00,
2013-03-28 12:39:00,37.8,29.6,29.71,SW,225,2.9,2.9,72,0.00,,,0.03,WUHU216HW,2013-03-28 11:39:00,
2013-03-28 12:44:00,37.8,29.6,29.71,SW,225,2.9,2.9,72,0.00,,,0.03,WUHU216HW,2013-03-28 11:44:00,
2013-03-28 12:49:00,37.6,30.1,29.71,SSW,203,4.7,5.4,74,0.00,,,0.03,WUHU216HW,2013-03-28 11:49:00,
2013-03-28 12:54:00,37.8,30.2,29.71,SSE,158,1.8,5.4,74,0.00,,,0.03,WUHU216HW,2013-03-28 11:54:00,
2013-03-28 12:59:00,37.8,30.0,29.71,SSW,203,3.1,4.7,73,0.00,,,0.03,WUHU216HW,2013-03-28 11:59:00,
2013-03-28 13:04:00,38.0,30.4,29.70,West,270,0.4,4.0,74,0.00,,,0.03,WUHU216HW,2013-03-28 12:04:00,
2013-03-28 13:09:00,39.2,30.2,29.70,East,90,2.2,3.6,70,0.00,,,0.03,WUHU216HW,2013-03-28 12:09:00,
2013-03-28 13:14:00,39.2,29.9,29.70,SE,135,1.3,3.6,69,0.00,,,0.03,WUHU216HW,2013-03-28 12:14:00,
2013-03-28 13:19:00,39.8,31.2,29.70,West,270,3.1,3.6,71,0.00,,,0.03,WUHU216HW,2013-03-28 12:19:00,
2013-03-28 13:24:00,40.3,31.0,29.71,WSW,248,3.6,4.3,69,0.00,,,0.03,WUHU216HW,2013-03-28 12:24:00,
2013-03-28 13:29:00,40.7,32.1,29.71,SSW,203,0.4,4.3,71,0.00,,,0.03,WUHU216HW,2013-03-28 12:29:00,
2013-03-28 13:34:00,41.0,32.4,29.70,WSW,248,1.3,3.6,71,0.00,,,0.03,WUHU216HW,2013-03-28 12:34:00,
2013-03-28 13:39:00,41.0,30.5,29.70,North,0,1.3,2.5,66,0.00,,,0.03,WUHU216HW,2013-03-28 12:39:00,
2013-03-28 13:45:00,40.7,31.3,29.70,NW,315,0.9,2.9,69,0.00,,,0.03,WUHU216HW,2013-03-28 12:45:00,
2013-03-28 13:50:00,40.7,31.0,29.70,ENE,68,1.6,4.9,68,0.00,,,0.03,WUHU216HW,2013-03-28 12:50:00,
2013-03-28 13:55:00,40.1,30.0,29.69,SSE,158,3.6,4.9,67,0.00,,,0.03,WUHU216HW,2013-03-28 12:55:00,
2013-03-28 14:00:00,39.4,28.9,29.69,ESE,113,1.6,3.6,66,0.00,,,0.03,WUHU216HW,2013-03-28 13:00:00,
2013-03-28 14:05:00,38.9,28.8,29.69,SSE,158,2.0,3.4,67,0.00,,,0.03,WUHU216HW,2013-03-28 13:05:00,
2013-03-28 14:10:00,38.7,28.6,29.69,NNW,338,1.8,4.7,67,0.00,,,0.03,WUHU216HW,2013-03-28 13:10:00,
2013-03-28 14:15:00,38.9,28.8,29.69,ENE,68,1.8,4.7,67,0.00,,,0.03,WUHU216HW,2013-03-28 13:15:00,
2013-03-28 14:20:00,39.1,29.4,29.69,SW,225,0.9,3.6,68,0.00,,,0.03,WUHU216HW,2013-03-28 13:20:00,
2013-03-28 14:25:00,39.4,30.1,29.68,NNW,338,0.4,3.6,69,0.00,,,0.03,WUHU216HW,2013-03-28 13:25:00,
2013-03-28 14:30:00,39.4,28.9,29.68,North,0,2.7,2.7,66,0.00,,,0.03,WUHU216HW,2013-03-28 13:30:00,
2013-03-28 14:35:00,39.2,28.7,29.68,NNE,23,1.8,4.0,66,0.00,,,0.03,WUHU216HW,2013-03-28 13:35:00,
2013-03-28 14:40:00,39.1,29.4,29.68,NE,45,2.2,4.0,68,0.00,,,0.03,WUHU216HW,2013-03-28 13:40:00,
2013-03-28 14:45:00,38.9,28.5,29.68,NE,45,4.9,4.9,66,0.00,,,0.03,WUHU216HW,2013-03-28 13:45:00,
2013-03-28 14:50:00,39.1,29.0,29.68,NE,45,2.5,5.6,67,0.00,,,0.03,WUHU216HW,2013-03-28 13:50:00,
2013-03-28 14:55:00,39.2,29.1,29.68,North,0,1.1,5.6,67,0.00,,,0.03,WUHU216HW,2013-03-28 13:55:00,
2013-03-28 15:00:00,39.2,29.1,29.68,East,90,3.8,5.6,67,0.00,,,0.03,WUHU216HW,2013-03-28 14:00:00,
2013-03-28 15:05:00,39.2,28.7,29.68,NNE,23,2.7,4.7,66,0.00,,,0.03,WUHU216HW,2013-03-28 14:05:00,
2013-03-28 15:10:00,39.1,28.5,29.67,East,90,1.3,4.7,66,0.00,,,0.03,WUHU216HW,2013-03-28 14:10:00,
2013-03-28 15:15:00,38.9,28.5,29.67,East,90,3.4,4.9,66,0.00,,,0.03,WUHU216HW,2013-03-28 14:15:00,
2013-03-28 15:20:00,38.7,28.3,29.67,SE,135,3.1,4.9,66,0.00,,,0.03,WUHU216HW,2013-03-28 14:20:00,
2013-03-28 15:25:00,38.5,28.4,29.67,ENE,68,0.4,4.0,67,0.00,,,0.03,WUHU216HW,2013-03-28 14:25:00,
2013-03-28 15:30:00,38.7,28.6,29.67,NNE,23,0.2,3.6,67,0.00,,,0.03,WUHU216HW,2013-03-28 14:30:00,
2013-03-28 15:35:00,38.7,28.6,29.67,NNE,23,3.8,3.8,67,0.00,,,0.03,WUHU216HW,2013-03-28 14:35:00,
2013-03-28 15:40:00,38.7,29.0,29.66,ENE,68,3.1,3.8,68,0.00,,,0.03,WUHU216HW,2013-03-28 14:40:00,
2013-03-28 15:45:00,38.9,28.8,29.67,South,180,1.1,3.8,67,0.00,,,0.03,WUHU216HW,2013-03-28 14:45:00,
2013-03-28 15:50:00,38.9,28.8,29.66,NNE,23,2.2,3.1,67,0.00,,,0.03,WUHU216HW,2013-03-28 14:50:00,
2013-03-28 15:55:00,38.9,29.2,29.66,NNE,23,0.2,3.4,68,0.00,,,0.03,WUHU216HW,2013-03-28 14:55:00,
2013-03-28 16:00:00,38.9,29.2,29.66,NNE,23,4.9,4.9,68,0.00,,,0.03,WUHU216HW,2013-03-28 15:00:00,
2013-03-28 16:05:00,38.5,28.4,29.66,NNE,23,2.9,4.9,67,0.00,,,0.03,WUHU216HW,2013-03-28 15:05:00,
2013-03-28 16:10:00,38.5,28.8,29.66,North,0,2.9,4.9,68,0.00,,,0.03,WUHU216HW,2013-03-28 15:10:00,
2013-03-28 16:15:00,38.5,28.4,29.65,North,0,1.1,4.7,67,0.00,,,0.03,WUHU216HW,2013-03-28 15:15:00,
2013-03-28 16:20:00,38.5,28.8,29.62,North,0,0.4,4.0,68,0.00,,,0.03,WUHU216HW,2013-03-28 15:20:00,
2013-03-28 16:25:00,38.5,28.8,29.58,NNE,23,1.1,4.0,68,0.00,,,0.03,WUHU216HW,2013-03-28 15:25:00,
2013-03-28 16:30:00,38.5,28.8,29.53,NNE,23,1.8,2.9,68,0.00,,,0.03,WUHU216HW,2013-03-28 15:30:00,
2013-03-28 16:35:00,38.5,29.3,29.52,ENE,68,2.9,2.9,69,0.00,,,0.03,WUHU216HW,2013-03-28 15:35:00,
2013-03-28 16:40:00,38.5,29.3,29.53,NNE,23,2.5,3.4,69,0.00,,,0.03,WUHU216HW,2013-03-28 15:40:00,
2013-03-28 16:45:00,38.5,29.6,29.46,North,0,2.5,4.0,70,0.00,,,0.03,WUHU216HW,2013-03-28 15:45:00,
2013-03-28 16:50:00,38.5,28.8,29.46,NNE,23,1.1,4.0,68,0.00,,,0.03,WUHU216HW,2013-03-28 15:50:00,
2013-03-28 16:55:00,38.5,29.3,29.40,NNE,23,1.3,3.1,69,0.00,,,0.03,WUHU216HW,2013-03-28 15:55:00,
2013-03-28 17:00:00,38.5,29.3,29.39,ENE,68,0.4,1.8,69,0.00,,,0.03,WUHU216HW,2013-03-28 16:00:00,
2013-03-28 17:05:00,38.3,29.4,29.29,NE,45,0.4,1.8,70,0.00,,,0.03,WUHU216HW,2013-03-28 16:05:00,
2013-03-28 17:10:00,38.3,29.1,29.37,ESE,113,1.3,3.4,69,0.00,,,0.03,WUHU216HW,2013-03-28 16:10:00,
2013-03-28 17:15:00,38.3,29.1,29.23,NE,45,2.2,3.4,69,0.00,,,0.03,WUHU216HW,2013-03-28 16:15:00,
2013-03-28 17:20:00,38.3,29.1,29.23,NE,45,2.2,3.1,69,0.00,,,0.03,WUHU216HW,2013-03-28 16:20:00,
2013-03-28 17:25:00,38.2,29.3,29.19,ENE,68,0.7,2.0,70,0.00,,,0.03,WUHU216HW,2013-03-28 16:25:00,
2013-03-28 17:30:00,38.2,29.3,29.15,ENE,68,1.1,2.0,70,0.00,,,0.03,WUHU216HW,2013-03-28 16:30:00,
2013-03-28 17:31:00,38.2,29.3,29.26,NE,45,1.1,1.1,70,0.00,,,0.03,WUHU216HW,2013-03-28 16:31:00,
2013-03-28 17:35:00,38.2,29.3,29.26,NE,45,1.1,1.1,70,0.00,,,0.03,WUHU216HW,2013-03-28 16:35:00,
2013-03-28 17:40:00,38.2,29.3,29.26,NE,45,1.1,1.1,70,0.00,,,0.03,WUHU216HW,2013-03-28 16:40:00,
2013-03-28 20:32:00,34.4,27.8,28.64,WNW,293,2.2,2.2,77,0.00,,,0.03,WUHU216HW,2013-03-28 19:32:00,
2013-03-28 20:37:00,34.4,27.8,28.64,SSW,203,2.0,2.2,77,0.00,,,0.03,WUHU216HW,2013-03-28 19:37:00,